Volver al catálogo

NOAA 16 DEB

ActivoPO
NORAD 41074·DEBRIS·🇺🇸 United States

Lanzado Sep 21, 2000 desde Vandenberg Space Force Base

Loading…

Próximos Pases (próximas 24 horas)

TLE

ActualizadoSource: Space-Track

Época: Sep 14, 2026, 00:01 UTC

1 41074U 00055AH  26257.00109046  .00001237  00000-0  33662-3 0  9994
2 41074  98.8776  94.5333 0082202 305.5546  53.8001 14.47487768566406

Sigue NOAA 16 DEB en tiempo real con AllMySat

Download on the App Store